This demonstration page uses our WeatherBlox Daily Observations layout. Learn more.

Left ArrowRight Arrow

Hourly Observations for June 29, 2021

Temp ( °F °C ) Dew Point ( °F °C ) Humidity (%) Winds ( mph kmh ) Pressure ( in mb ) Visibility ( mi km ) Precip ( " mm )
12:15 am 00:15 Clear 63 17 60 15.3 90 90 SSW 5 7 30.12 1020 10 16 N/A
12:35 am 00:35 Clear 62 16.9 60 15.3 90 90 SW 3 6 30.12 1020 10 16 N/A
12:55 am 00:55 Clear 62 16.5 59 15.2 92 92 N N/A 30.12 1020 10 16 N/A
1:15 am 01:15 Clear 61 16 59 15 94 94 NW 5 7 30.13 1020 10 16 N/A
1:35 am 01:35 Clear 60 15.5 58 14.6 94 94 N 6 9 30.13 1020 10 16 N/A
1:55 am 01:55 Partly Cloudy 59 15.2 58 14.5 96 96 N N/A 30.13 1020 10 16 N/A
2:15 am 02:15 Mostly Cloudy 59 15.2 58 14.4 95 95 NNW 3 6 30.13 1020 10 16 N/A
2:35 am 02:35 Cloudy 60 15.3 58 14.5 95 95 NW 3 6 30.13 1020 10 16 N/A
2:55 am 02:55 Cloudy 60 15.3 58 14.5 95 95 NW 5 7 30.13 1020 10 16 N/A
3:15 am 03:15 Partly Cloudy 59 15.2 58 14.5 96 96 N N/A 30.13 1020 10 16 N/A
3:35 am 03:35 Clear 59 15 58 14.2 95 95 WNW 3 6 30.13 1020 10 16 N/A
3:55 am 03:55 Clear 58 14.7 57 14 96 96 WNW 5 7 30.13 1020 10 16 N/A
4:15 am 04:15 Clear 58 14.6 57 13.8 95 95 WNW 6 9 30.14 1021 10 16 N/A
4:35 am 04:35 Clear 58 14.5 56 13.6 94 94 NW 9 15 30.14 1021 10 16 N/A
4:55 am 04:55 Clear 57 14.1 56 13.3 95 95 NW 6 9 30.14 1021 7 11 N/A
5:15 am 05:15 Clear 57 13.9 56 13.2 96 96 WNW 5 7 30.15 1021 7 11 N/A
5:35 am 05:35 Clear 57 13.7 55 13 96 96 WNW 5 7 30.16 1021 7 11 N/A
5:55 am 05:55 Clear 56 13.5 55 12.7 95 95 N N/A 30.17 1022 7 11 N/A
6:15 am 06:15 Sunny 56 13.3 55 12.7 96 96 WNW 6 9 30.17 1022 7 11 N/A
6:35 am 06:35 Sunny 56 13.3 55 12.7 96 96 WNW 6 9 30.17 1022 7 11 N/A
6:55 am 06:55 Sunny 56 13.5 55 12.9 96 96 WNW 6 9 30.17 1022 10 16 N/A
7:15 am 07:15 Sunny 58 14.4 56 13.4 94 94 WNW 3 6 30.17 1022 10 16 N/A
7:35 am 07:35 Sunny 59 15 56 13.5 91 91 WNW 5 7 30.16 1021 10 16 N/A
7:55 am 07:55 Sunny 60 15.7 57 13.9 89 89 WNW 5 7 30.16 1021 10 16 N/A
8:15 am 08:15 Sunny 62 16.5 57 14.1 86 86 WNW 5 7 30.15 1021 10 16 N/A
8:35 am 08:35 Sunny 63 17.4 58 14.6 84 84 NNW 5 7 30.14 1021 10 16 N/A
8:55 am 08:55 Sunny 65 18.5 60 15.3 82 82 N 7 11 30.13 1020 10 16 N/A
9:15 am 09:15 Sunny 67 19.6 60 15.4 77 77 N 5 7 30.13 1020 10 16 N/A
9:35 am 09:35 Sunny 69 20.7 60 15.8 74 74 N 6 9 30.13 1020 10 16 N/A
9:55 am 09:55 Sunny 71 21.6 60 15.6 69 69 N 3 6 30.12 1020 10 16 N/A
10:15 am 10:15 Sunny 72 22 60 15.5 67 67 NNE 5 7 30.11 1020 10 16 N/A
10:35 am 10:35 Sunny 73 22.7 60 15.4 64 64 NNE 3 6 30.11 1020 10 16 N/A
10:55 am 10:55 Sunny 74 23.2 60 15.4 62 62 N N/A 30.09 1019 10 16 N/A
11:15 am 11:15 Sunny 74 23.6 60 15.4 60 60 N N/A 30.09 1019 10 16 N/A
11:35 am 11:35 Sunny 75 24 60 15.6 59 59 ENE 3 6 30.09 1019 10 16 N/A
11:55 am 11:55 Sunny 76 24.7 60 15.4 56 56 N 6 9 30.09 1019 10 16 N/A
12:15 pm 12:15 Sunny 77 25.1 60 15.4 55 55 E 3 6 30.08 1019 10 16 N/A
12:35 pm 12:35 Sunny 78 25.4 59 15 53 53 E 7 11 30.08 1018 10 16 N/A
12:55 pm 12:55 Sunny 78 25.6 60 15.3 53 53 E 3 6 30.07 1018 10 16 N/A
1:15 pm 13:15 Partly Cloudy 78 25.6 60 15.4 53 53 E 6 9 30.07 1018 10 16 N/A
1:35 pm 13:35 Partly Cloudy 79 26.3 59 14.8 49 49 ENE 3 6 30.07 1018 10 16 N/A
1:55 pm 13:55 Partly Cloudy 80 26.9 59 15.2 49 49 SSE 5 7 30.05 1018 10 16 N/A
2:15 pm 14:15 Partly Cloudy 80 26.5 58 14.5 48 48 ESE 6 9 30.06 1018 10 16 N/A
2:35 pm 14:35 Sunny 80 26.6 60 15.7 51 51 ESE 9 15 30.06 1018 10 16 N/A
2:55 pm 14:55 Sunny 79 26.3 60 15.5 51 51 E 8 13 30.06 1018 10 16 N/A
3:15 pm 15:15 Sunny 79 26.3 60 15.6 52 52 ESE 3 6 30.05 1018 10 16 N/A
3:35 pm 15:35 Sunny 81 27.1 59 15 48 48 E 3 6 30.04 1017 10 16 N/A
3:55 pm 15:55 Sunny 81 27.4 59 15.1 47 47 S 5 7 30.04 1017 10 16 N/A
4:15 pm 16:15 Partly Cloudy 81 27.2 58 14.6 46 46 SE 3 6 30.04 1017 10 16 N/A
4:35 pm 16:35 Mostly Cloudy 81 27.3 59 15.2 48 48 SSE 8 13 30.03 1017 10 16 N/A
4:55 pm 16:55 Mostly Cloudy 81 27.1 60 15.7 50 50 SSE 7 11 30.03 1017 10 16 N/A
5:15 pm 17:15 Mostly Cloudy 80 26.8 60 15.7 51 51 S 6 9 30.03 1017 10 16 N/A
5:35 pm 17:35 Partly Cloudy 80 26.6 61 15.9 52 52 SE 5 7 30.04 1017 10 16 N/A
5:55 pm 17:55 Sunny 80 26.8 61 15.9 51 51 SSE 8 13 30.02 1017 10 16 N/A
6:15 pm 18:15 Partly Cloudy 79 26.1 60 15.6 52 52 SSE 9 15 30.04 1017 10 16 N/A
6:35 pm 18:35 Sunny 79 26 61 16 54 54 SSE 8 13 30.03 1017 10 16 N/A
6:55 pm 18:55 Sunny 79 25.9 61 16.1 55 55 SSE 8 13 30.03 1017 10 16 N/A
7:15 pm 19:15 Sunny 78 25.7 61 15.9 55 55 S 7 11 30.03 1017 10 16 N/A
7:35 pm 19:35 Sunny 77 25 60 15.7 56 56 SSE 6 9 30.04 1017 10 16 N/A
7:55 pm 19:55 Sunny 77 24.8 61 16 58 58 SSE 5 7 30.04 1017 10 16 N/A
8:15 pm 20:15 Sunny 76 24.5 61 16.2 60 60 SSE 5 7 30.05 1018 10 16 N/A
8:35 pm 20:35 Sunny 76 24.5 62 16.8 62 62 SSE 5 7 30.05 1018 10 16 N/A
8:55 pm 20:55 Sunny 75 23.8 64 17.5 68 68 SE 3 6 30.06 1018 10 16 N/A
9:15 pm 21:15 Clear 74 23.5 64 17.6 70 70 SE 5 7 30.06 1018 10 16 N/A
9:35 pm 21:35 Clear 73 23 64 17.7 72 72 ESE 3 6 30.07 1018 10 16 N/A
9:55 pm 21:55 Clear 71 21.5 65 18.4 83 83 N N/A 30.09 1019 10 16 N/A
10:15 pm 22:15 Hazy 70 21 65 18.2 84 84 N N/A 30.10 1019 5 8 N/A
10:35 pm 22:35 Clear 70 21 65 18.1 84 84 ESE 3 6 30.10 1019 10 16 N/A
10:55 pm 22:55 Clear 69 20.6 64 17.9 85 85 N N/A 30.11 1020 10 16 N/A
11:15 pm 23:15 Clear 68 20 65 18.1 89 89 N N/A 30.12 1020 7 11 N/A
11:35 pm 23:35 Clear 67 19.7 65 18.1 91 91 N N/A 30.12 1020 7 11 N/A
11:55 pm 23:55 Clear 67 19.7 64 18 90 90 N N/A 30.12 1020 7 11 N/A

Powered by AerisWeather